Weather in Turku

Finland     60°27′05″N   22°16′00″E
temp.,
°C
wind,
m/s
gust,
m/s
humid.,
%
clouds,
%
prec.,
mm/h
press.,
hPa
HPBL,
m
12 may, wed
wed1200:00+11se310835 0.0 1016191
03:00+11se310860 0.0 1016212
06:00+11se411890 0.0 1016257
09:00+14sse510726 0.0 1016406
12:00+17sse610566 0.0 1017623
15:00+19sse6114998 0.0 1016884
18:00+18sse511565 0.0 1016647
21:00+15se310705 0.0 1015265
13 may, thu
thu1300:00+13se3108255 0.0 1015181
03:00+13se2981100 0.0 1015148
06:00+13se2482100 0.0 101493
09:00+17ese247133 0.0 1013276
12:00+21ese35522 0.0 10121208
15:00+22se464998 0.3 10101582
18:00+19sse366636 2.7 10101299
21:00+15se23735 2.7 101048
14 may, fri
fri1400:00+11ese258235 0.0 1011101
03:00+10e23835 0.0 101055
06:00+11ene2382100 0.0 100956
09:00+13ese2372100 0.0 1009310
12:00+9se1291100 1.2 1010158
15:00+10nw1293100 3.4 1009149
18:00+13ne2483100 0.1 1009480
21:00+12nne369138 0.1 1008210
15 may, sat
sat1500:00+10ene279696 0.0 1008164
03:00+9e379518 0.0 1007146
06:00+9e3796100 0.0 1006185
09:00+11e2695100 0.2 1006262
12:00+14se2485100 0.0 1006578
15:00+15sw2280100 0.6 1006460
18:00+12wsw238879 0.3 1006206
21:00+11w229484 0.6 100682
16 may, sun
sun1600:00+10w2497100 0.1 1006122
03:00+9w3597100 0.1 1006131
06:00+8w3697100 0.1 1006177
09:00+8w3595100 0.1 1007205
12:00+11wsw357958 0.1 1009417
15:00+11wsw457426 0.1 1010435
18:00+9wsw348115 0.0 1011314
21:00+6wsw239260 0.1 1012192